[Date Prev][Date Next][Thread Prev][Thread Next] - [Date Index][Thread Index][Author Index]

2 Line ISS Keps 3-19



ISS
1 25544U 98067A   04079.17731481  .00018379  00000-0  17403-3 0  3981
2 25544  51.6288  64.2588 0010614 294.6195  87.1654 15.66954206304195


----
Via the sarex mailing list at AMSAT.ORG courtesy of AMSAT-NA.
To unsubscribe, send "unsubscribe sarex" to Majordomo@amsat.org



AMSAT Top AMSAT Home